Retour au catalogue

ARIANE 5 DEB

SYLDA

ActifHEO
NORAD 45247·DEBRIS·🇫🇷 France

Lancé Feb 18, 2020 depuis Guiana Space Centre

Loading…

Prochains Passages (prochaines 24 heures)

TLE

FraisSource: Space-Track

Époque: Sep 14, 2026, 10:33 UTC

1 45247U 20013C   26257.43968767  .00018712  00000-0  38622-2 0  9992
2 45247   5.5799  97.9721 6208492 212.7203  86.1627  3.73404192 67468

Suivez ARIANE 5 DEB en temps réel avec AllMySat

Download on the App Store